Location: Rounton
(54.4000°N, 1.3500°W)
Time: 01:59:19
(UTC+00:00)

Explorer 7 - Pass Details

Date: 08 December 2021
Orbit: 483 x 674 km, 50.3° (Epoch: 18 January)

Event Time Altitude Azimuth Distance (km) Brightness Sun altitude
Exits shadow 07:08:36 - 259° (W) 2,299 9.5 -8.6°
Reaches altitude 10° 07:09:43 10° 256° (WSW) 1,864 9.1 -8.5°
Maximum altitude 07:13:48 48° 182° (S) 716 7.6 -8.0°
Drops below altitude 10° 07:17:38 10° 108° (ESE) 1,756 11.0 -7.5°
Sets 07:19:50 0° 102° (ESE) 2,617 12.0 -7.2°
